Retour au catalogue

STARLINK-32910

ActifCommunicationsVLEO
NORAD 63089·PAYLOAD·🇺🇸 United States

Lancé Feb 23, 2025 depuis Vandenberg Space Force Base

Loading…

Prochains Passages (prochaines 24 heures)

TLE

FraisSource: CelesTrak SupGP

Époque: Sep 14, 2026, 21:05 UTC

1 63089C 25037N   26257.87895833  .00058304  00000+0  20284-2 0  2570
2 63089  70.0005 235.7652 0003371 265.3763  61.9270 15.29546977    17

Suivez STARLINK-32910 en temps réel avec AllMySat

Download on the App Store